| time (UTC) | temp C | wind direction | speed KPH | gust KPH | rain 1hr cm | rain 24hr cm | rain mn cm | humidity % | barometer mb |
| 20260502210737 | 5 | 354 | 1.6 | 1.6 | 0.00 | 0.00 | 0.00 | 54 | 1015.3 |
| 20260502210235 | 6 | 49 | 3.2 | 4.8 | 0.00 | 0.00 | 0.00 | 51 | 1015.4 |
| 20260502205732 | 6 | 299 | 0.0 | 3.2 | 0.00 | 0.00 | 0.00 | 51 | 1015.3 |
| 20260502205227 | 6 | 344 | 0.0 | 4.8 | 0.00 | 0.00 | 0.00 | 51 | 1015.2 |
| 20260502204725 | 6 | 342 | 0.0 | 3.2 | 0.00 | 0.00 | 0.00 | 53 | 1015.5 |
| 20260502204222 | 6 | 45 | 0.0 | 4.8 | 0.00 | 0.00 | 0.00 | 50 | 1015.2 |
| 20260502203720 | 7 | 114 | 0.0 | 1.6 | 0.00 | 0.00 | 0.00 | 57 | 1015.3 |
| 20260502203218 | 7 | 21 | 3.2 | 6.4 | 0.00 | 0.00 | 0.00 | 50 | 1015.1 |
| 20260502202711 | 6 | 99 | 0.0 | 3.2 | 0.00 | 0.00 | 0.00 | 54 | 1015.3 |
| 20260502202210 | 6 | 78 | 0.0 | 1.6 | 0.00 | 0.00 | 0.00 | 50 | 1015.3 |
| 20260502201707 | 6 | 224 | 0.0 | 1.6 | 0.00 | 0.00 | 0.00 | 51 | 1015.6 |
| 20260502201204 | 7 | 103 | 1.6 | 3.2 | 0.00 | 0.00 | 0.00 | 51 | 1015.4 |
| 20260502200659 | 7 | 345 | 0.0 | 3.2 | 0.00 | 0.00 | 0.00 | 50 | 1015.4 |
| 20260502200156 | 7 | 196 | 1.6 | 3.2 | 0.00 | 0.00 | 0.00 | 52 | 1015.6 |
| 20260502195655 | 6 | 163 | 0.0 | 1.6 | 0.00 | 0.00 | 0.00 | 56 | 1015.4 |
| 20260502195150 | 6 | 70 | 0.0 | 1.6 | 0.00 | 0.00 | 0.00 | 52 | 1015.6 |
| 20260502194647 | 6 | 215 | 0.0 | 1.6 | 0.00 | 0.00 | 0.00 | 54 | 1015.6 |
| 20260502194144 | 6 | 7 | 0.0 | 3.2 | 0.00 | 0.00 | 0.00 | 56 | 1015.7 |
| 20260502193641 | 6 | 71 | 0.0 | 0.0 | 0.00 | 0.00 | 0.00 | 51 | 1015.7 |
| 20260502193138 | 6 | 57 | 1.6 | 1.6 | 0.00 | 0.00 | 0.00 | 53 | 1015.8 |
| 20260502192633 | 6 | 13 | 0.0 | 0.0 | 0.00 | 0.00 | 0.00 | 52 | 1015.9 |
| 20260502192131 | 6 | 135 | 1.6 | 3.2 | 0.00 | 0.00 | 0.00 | 53 | 1015.9 |
| 20260502191627 | 6 | 59 | 0.0 | 1.6 | 0.00 | 0.00 | 0.00 | 55 | 1015.9 |
| 20260502191125 | 6 | 54 | 0.0 | 1.6 | 0.00 | 0.00 | 0.00 | 56 | 1016.2 |
| 20260502190622 | 6 | 104 | 3.2 | 3.2 | 0.00 | 0.00 | 0.00 | 58 | 1016.2 |
| 20260502190120 | 6 | 60 | 0.0 | 0.0 | 0.00 | 0.00 | 0.00 | 51 | 1016.3 |
| 20260502185614 | 6 | 18 | 0.0 | 0.0 | 0.00 | 0.00 | 0.00 | 58 | 1016.0 |
| 20260502185111 | 6 | 52 | 0.0 | 4.8 | 0.00 | 0.00 | 0.00 | 53 | 1016.2 |
| 20260502184608 | 6 | 77 | 0.0 | 1.6 | 0.00 | 0.00 | 0.00 | 55 | 1016.2 |
| 20260502184103 | 6 | 101 | 0.0 | 1.6 | 0.00 | 0.00 | 0.00 | 54 | 1016.2 |
| 20260502183559 | 6 | 3 | 0.0 | 3.2 | 0.00 | 0.00 | 0.00 | 56 | 1016.3 |
| 20260502183056 | 6 | 39 | 1.6 | 1.6 | 0.00 | 0.00 | 0.00 | 54 | 1016.4 |
| 20260502182551 | 6 | 42 | 0.0 | 3.2 | 0.00 | 0.00 | 0.00 | 52 | 1016.3 |
| 20260502182047 | 6 | 16 | 1.6 | 3.2 | 0.00 | 0.00 | 0.00 | 58 | 1016.5 |
| 20260502181545 | 7 | 47 | 1.6 | 3.2 | 0.00 | 0.00 | 0.00 | 54 | 1016.4 |
| 20260502181044 | 6 | 53 | 0.0 | 4.8 | 0.00 | 0.00 | 0.00 | 59 | 1016.5 |
| 20260502180540 | 6 | 55 | 1.6 | 1.6 | 0.00 | 0.00 | 0.00 | 57 | 1016.6 |
| 20260502170459 | 6 | 53 | 0.0 | 1.6 | 0.00 | 0.00 | 0.00 | 57 | 1016.5 |
| 20260502163943 | 5 | 93 | 0.0 | 1.6 | 0.00 | 0.00 | 0.00 | 63 | 1016.7 |
| 20260502163438 | 5 | 52 | 0.0 | 1.6 | 0.00 | 0.00 | 0.00 | 63 | 1016.7 |
| 20260502162936 | 5 | 352 | 1.6 | 1.6 | 0.00 | 0.00 | 0.00 | 62 | 1016.7 |
| 20260502162433 | 5 | 359 | 0.0 | 0.0 | 0.00 | 0.00 | 0.00 | 64 | 1016.7 |
| 20260502161930 | 5 | 34 | 1.6 | 1.6 | 0.00 | 0.00 | 0.00 | 63 | 1016.9 |
| 20260502161426 | 6 | 97 | 0.0 | 4.8 | 0.00 | 0.00 | 0.00 | 61 | 1017.0 |
| 20260502160924 | 6 | 99 | 0.0 | 3.2 | 0.00 | 0.00 | 0.00 | 59 | 1016.8 |
| 20260502160422 | 5 | 51 | 1.6 | 1.6 | 0.00 | 0.00 | 0.00 | 64 | 1016.9 |
| 20260502151901 | 6 | 44 | 0.0 | 4.8 | 0.00 | 0.00 | 0.00 | 62 | 1016.9 |
| 20260502151357 | 6 | 9 | 0.0 | 3.2 | 0.00 | 0.00 | 0.00 | 61 | 1016.9 |
| 20260502150855 | 6 | 344 | 0.0 | 0.0 | 0.00 | 0.00 | 0.00 | 60 | 1016.8 |
| 20260502150351 | 6 | 69 | 1.6 | 3.2 | 0.00 | 0.00 | 0.00 | 66 | 1016.7 |
| 20260502130739 | 3 | 91 | 1.6 | 3.2 | 0.00 | 0.00 | 0.00 | 87 | 1016.5 |
| 20260502130237 | 3 | 41 | 0.0 | 1.6 | 0.00 | 0.00 | 0.00 | 85 | 1016.6 |
| 20260502123723 | 2 | 12 | 1.6 | 1.6 | 0.00 | 0.00 | 0.00 | 88 | 1016.7 |
| 20260502123219 | 2 | 285 | 0.0 | 0.0 | 0.00 | 0.00 | 0.00 | 89 | 1016.8 |
| 20260502122716 | 2 | 357 | 0.0 | 0.0 | 0.00 | 0.00 | 0.00 | 90 | 1016.6 |
| 20260502122212 | 2 | 3 | 0.0 | 0.0 | 0.00 | 0.00 | 0.00 | 90 | 1016.7 |
| 20260502121711 | 2 | 39 | 1.6 | 3.2 | 0.00 | 0.00 | 0.00 | 90 | 1016.7 |
| 20260502121208 | 2 | 63 | 0.0 | 0.0 | 0.00 | 0.00 | 0.00 | 91 | 1016.6 |
| 20260502120704 | 1 | 103 | 0.0 | 0.0 | 0.00 | 0.00 | 0.00 | 92 | 1016.6 |
| 20260502120201 | 1 | 62 | 0.0 | 0.0 | 0.00 | 0.00 | 0.00 | 93 | 1016.7 |
| 20260502115659 | 1 | 34 | 0.0 | 1.6 | 0.00 | 0.00 | 0.00 | 94 | 1016.8 |
| 20260502115155 | 1 | 5 | 0.0 | 0.0 | 0.00 | 0.00 | 0.00 | 94 | 1016.6 |
| 20260502114651 | 1 | 321 | 0.0 | 0.0 | 0.00 | 0.00 | 0.00 | 94 | 1016.6 |
| 20260502114149 | 1 | 321 | 0.0 | 0.0 | 0.00 | 0.00 | 0.00 | 95 | 1016.7 |
| 20260502113646 | 1 | 325 | 0.0 | 1.6 | 0.00 | 0.00 | 0.00 | 95 | 1016.7 |
| 20260502113144 | 1 | 7 | 0.0 | 0.0 | 0.00 | 0.00 | 0.00 | 95 | 1016.6 |
| 20260502112642 | 1 | 30 | 0.0 | 0.0 | 0.00 | 0.00 | 0.00 | 95 | 1016.4 |
| 20260502112139 | 1 | 33 | 0.0 | 0.0 | 0.00 | 0.00 | 0.00 | 95 | 1016.6 |
| 20260502111636 | 1 | 33 | 0.0 | 1.6 | 0.00 | 0.00 | 0.00 | 96 | 1016.8 |
| 20260502111134 | 1 | 22 | 0.0 | 0.0 | 0.00 | 0.00 | 0.00 | 97 | 1016.9 |
| 20260502110631 | 1 | 20 | 0.0 | 0.0 | 0.00 | 0.00 | 0.00 | 97 | 1016.9 |
| 20260502110128 | 0 | 20 | 0.0 | 0.0 | 0.00 | 0.00 | 0.00 | 97 | 1017.1 |
| 20260502105626 | 0 | 20 | 0.0 | 0.0 | 0.00 | 0.00 | 0.00 | 97 | 1017.0 |
| 20260502105123 | 0 | 20 | 0.0 | 0.0 | 0.00 | 0.00 | 0.00 | 97 | 1016.9 |
| 20260502104620 | 0 | 20 | 0.0 | 0.0 | 0.00 | 0.00 | 0.00 | 97 | 1016.9 |
| 20260502104117 | 0 | 20 | 0.0 | 0.0 | 0.00 | 0.00 | 0.00 | 97 | 1016.8 |
| 20260502103615 | 0 | 20 | 0.0 | 0.0 | 0.00 | 0.00 | 0.00 | 97 | 1016.7 |
| 20260502103113 | 0 | 21 | 0.0 | 0.0 | 0.00 | 0.00 | 0.00 | 97 | 1016.9 |
| 20260502102609 | 0 | 20 | 0.0 | 0.0 | 0.00 | 0.00 | 0.00 | 97 | 1016.8 |
| 20260502102106 | 0 | 21 | 0.0 | 0.0 | 0.00 | 0.00 | 0.00 | 97 | 1017.0 |
| 20260502101604 | 0 | 21 | 0.0 | 0.0 | 0.00 | 0.00 | 0.00 | 97 | 1016.9 |
| 20260502101102 | 0 | 21 | 0.0 | 0.0 | 0.00 | 0.00 | 0.00 | 97 | 1016.9 |
| 20260502100600 | 0 | 21 | 0.0 | 0.0 | 0.00 | 0.00 | 0.00 | 98 | 1017.0 |
| 20260502091032 | 0 | 21 | 0.0 | 0.0 | 0.00 | 0.00 | 0.00 | 98 | 1016.8 |
| 20260502090529 | 0 | 21 | 0.0 | 0.0 | 0.00 | 0.00 | 0.00 | 99 | 1016.6 |
| 20260502071424 | 1 | 16 | 0.0 | 0.0 | 0.00 | 0.00 | 0.00 | 97 | 1016.4 |
| 20260502070922 | 1 | 14 | 0.0 | 0.0 | 0.00 | 0.00 | 0.00 | 97 | 1016.6 |
| 20260502070420 | 1 | 16 | 0.0 | 0.0 | 0.00 | 0.00 | 0.00 | 97 | 1016.6 |
| 20260502065918 | 1 | 16 | 0.0 | 0.0 | 0.00 | 0.00 | 0.00 | 96 | 1016.6 |
| 20260502065416 | 1 | 16 | 0.0 | 0.0 | 0.00 | 0.00 | 0.00 | 96 | 1016.6 |
| 20260502064914 | 1 | 14 | 0.0 | 1.6 | 0.00 | 0.00 | 0.00 | 96 | 1016.7 |
| 20260502064411 | 1 | 337 | 0.0 | 0.0 | 0.00 | 0.00 | 0.00 | 97 | 1016.6 |
| 20260502063908 | 1 | 349 | 0.0 | 1.6 | 0.00 | 0.00 | 0.00 | 97 | 1016.7 |
| 20260502063406 | 1 | 301 | 0.0 | 0.0 | 0.00 | 0.00 | 0.00 | 97 | 1016.7 |
| 20260502062903 | 1 | 299 | 0.0 | 0.0 | 0.00 | 0.00 | 0.00 | 97 | 1016.6 |
| 20260502062401 | 1 | 326 | 0.0 | 1.6 | 0.00 | 0.00 | 0.00 | 97 | 1016.7 |
| 20260502061859 | 1 | 352 | 0.0 | 0.0 | 0.00 | 0.00 | 0.00 | 97 | 1016.7 |
| 20260502061357 | 1 | 355 | 0.0 | 0.0 | 0.00 | 0.00 | 0.00 | 97 | 1016.6 |
| 20260502060852 | 1 | 22 | 0.0 | 0.0 | 0.00 | 0.00 | 0.00 | 97 | 1016.7 |
| 20260502060347 | 1 | 9 | 0.0 | 0.0 | 0.00 | 0.00 | 0.00 | 97 | 1016.9 |
| 20260502055845 | 1 | 13 | 0.0 | 0.0 | 0.00 | 0.00 | 0.00 | 97 | 1016.9 |
| 20260502055343 | 1 | 15 | 0.0 | 0.0 | 0.00 | 0.00 | 0.00 | 98 | 1016.9 |
| 20260502054842 | 1 | 0 | 0.0 | 0.0 | 0.00 | 0.00 | 0.00 | 98 | 1016.9 |
| 20260502054339 | 1 | 355 | 0.0 | 0.0 | 0.00 | 0.00 | 0.00 | 98 | 1016.9 |
| 20260502053837 | 1 | 9 | 0.0 | 0.0 | 0.00 | 0.00 | 0.00 | 98 | 1017.0 |
| 20260502053334 | 1 | 30 | 0.0 | 0.0 | 0.00 | 0.00 | 0.00 | 98 | 1017.0 |
| 20260502052831 | 1 | 33 | 0.0 | 0.0 | 0.00 | 0.00 | 0.00 | 98 | 1017.1 |
| 20260502052329 | 1 | 33 | 0.0 | 0.0 | 0.00 | 0.00 | 0.00 | 98 | 1017.5 |
| 20260502051827 | 2 | 11 | 0.0 | 0.0 | 0.00 | 0.00 | 0.00 | 97 | 1017.5 |
| 20260502051326 | 2 | 18 | 0.0 | 0.0 | 0.00 | 0.00 | 0.00 | 98 | 1017.1 |
| 20260502050821 | 2 | 355 | 0.0 | 0.0 | 0.00 | 0.00 | 0.00 | 98 | 1017.0 |
| 20260502050318 | 2 | 43 | 0.0 | 0.0 | 0.00 | 0.00 | 0.00 | 98 | 1017.1 |
| 20260502045815 | 2 | 19 | 0.0 | 0.0 | 0.00 | 0.00 | 0.00 | 98 | 1016.8 |
| 20260502045312 | 2 | 88 | 0.0 | 0.0 | 0.00 | 0.00 | 0.00 | 99 | 1017.0 |
| 20260502044809 | 2 | 112 | 0.0 | 0.0 | 0.00 | 0.00 | 0.00 | 99 | 1017.0 |
| 20260502044305 | 2 | 100 | 0.0 | 0.0 | 0.00 | 0.00 | 0.00 | 99 | 1016.8 |
| 20260502043802 | 2 | 23 | 0.0 | 0.0 | 0.00 | 0.00 | 0.00 | 98 | 1016.7 |
| 20260502043259 | 2 | 322 | 1.6 | 1.6 | 0.00 | 0.00 | 0.00 | 98 | 1016.6 |
| 20260502042759 | 3 | 327 | 1.6 | 3.2 | 0.00 | 0.00 | 0.00 | 99 | 1016.7 |
| 20260502042256 | 3 | 212 | 0.0 | 3.2 | 0.00 | 0.00 | 0.00 | 99 | 1016.6 |
| 20260502041754 | 3 | 130 | 0.0 | 0.0 | 0.00 | 0.00 | 0.00 | 99 | 1016.7 |
| 20260502041251 | 3 | 143 | 0.0 | 0.0 | 0.00 | 0.00 | 0.00 | 99 | 1016.6 |
| 20260502040748 | 3 | 18 | 0.0 | 0.0 | 0.00 | 0.00 | 0.00 | 99 | 1016.8 |
| 20260502040245 | 3 | 87 | 0.0 | 0.0 | 0.00 | 0.13 | 0.13 | 99 | 1017.0 |
| 20260502035741 | 3 | 97 | 0.0 | 0.0 | 0.00 | 0.13 | 0.13 | 99 | 1016.8 |
| 20260502035238 | 3 | 16 | 0.0 | 0.0 | 0.00 | 0.13 | 0.13 | 99 | 1016.6 |
| 20260502034735 | 3 | 35 | 0.0 | 0.0 | 0.00 | 0.13 | 0.13 | 99 | 1016.5 |
| 20260502034233 | 3 | 1 | 0.0 | 0.0 | 0.00 | 0.13 | 0.13 | 99 | 1016.7 |
| 20260502033731 | 3 | 44 | 0.0 | 0.0 | 0.00 | 0.13 | 0.13 | 99 | 1016.5 |
| 20260502033229 | 3 | 332 | 0.0 | 0.0 | 0.00 | 0.13 | 0.13 | 99 | 1016.7 |
| 20260502032725 | 3 | 36 | 0.0 | 0.0 | 0.00 | 0.13 | 0.13 | 99 | 1016.8 |
| 20260502032221 | 3 | 126 | 0.0 | 0.0 | 0.00 | 0.13 | 0.13 | 99 | 1016.8 |
| 20260502031719 | 3 | 107 | 0.0 | 0.0 | 0.00 | 0.13 | 0.13 | 99 | 1016.8 |
| 20260502031217 | 4 | 90 | 0.0 | 0.0 | 0.13 | 0.13 | 0.13 | 99 | 1016.8 |
| 20260502030716 | 4 | 106 | 0.0 | 0.0 | 0.30 | 0.13 | 0.13 | 99 | 1016.5 |
| 20260502030214 | 4 | 95 | 0.0 | 0.0 | 0.18 | 0.10 | 0.10 | 99 | 1016.6 |
| 20260502025710 | 4 | 32 | 0.0 | 0.0 | 0.00 | 0.08 | 0.08 | 99 | 1016.3 |
| 20260502025208 | 4 | 30 | 0.0 | 0.0 | 0.00 | 0.08 | 0.08 | 99 | 1016.4 |
| 20260502024705 | 4 | 20 | 0.0 | 0.0 | 0.00 | 0.08 | 0.08 | 99 | 1016.4 |
| 20260502024204 | 4 | 40 | 0.0 | 0.0 | 0.00 | 0.08 | 0.08 | 98 | 1016.5 |
| 20260502023701 | 4 | 40 | 0.0 | 0.0 | 0.00 | 0.08 | 0.08 | 98 | 1016.3 |
| 20260502023158 | 3 | 41 | 0.0 | 0.0 | 0.00 | 0.08 | 0.08 | 98 | 1016.6 |
| 20260502022655 | 3 | 40 | 0.0 | 0.0 | 0.00 | 0.08 | 0.08 | 98 | 1016.5 |
| 20260502022152 | 4 | 45 | 0.0 | 0.0 | 0.00 | 0.08 | 0.08 | 99 | 1016.5 |
| 20260502021650 | 4 | 99 | 0.0 | 0.0 | 0.00 | 0.08 | 0.08 | 99 | 1016.6 |
| 20260502021147 | 4 | 105 | 0.0 | 0.0 | 0.00 | 0.08 | 0.08 | 99 | 1016.7 |
| 20260502020644 | 3 | 74 | 0.0 | 0.0 | 0.00 | 0.08 | 0.08 | 98 | 1016.7 |
| 20260502020140 | 4 | 59 | 0.0 | 0.0 | 0.00 | 0.08 | 0.08 | 98 | 1016.4 |
| 20260502015639 | 3 | 60 | 0.0 | 0.0 | 0.00 | 0.08 | 0.08 | 98 | 1016.3 |
| 20260502015134 | 3 | 59 | 0.0 | 0.0 | 0.00 | 0.08 | 0.08 | 98 | 1016.2 |
| 20260502014632 | 3 | 60 | 0.0 | 0.0 | 0.00 | 0.08 | 0.08 | 98 | 1016.3 |
| 20260502014129 | 3 | 60 | 0.0 | 0.0 | 0.13 | 0.08 | 0.08 | 98 | 1016.3 |
| 20260502013625 | 3 | 63 | 0.0 | 0.0 | 0.00 | 0.05 | 0.05 | 97 | 1015.9 |
| 20260502013120 | 3 | 63 | 0.0 | 0.0 | 0.00 | 0.05 | 0.05 | 97 | 1016.2 |
| 20260502012618 | 4 | 72 | 0.0 | 0.0 | 0.00 | 0.05 | 0.05 | 97 | 1015.9 |
| 20260502012117 | 4 | 56 | 0.0 | 0.0 | 0.00 | 0.05 | 0.05 | 97 | 1016.3 |
| 20260502011613 | 4 | 80 | 0.0 | 0.0 | 0.00 | 0.05 | 0.05 | 96 | 1016.5 |
| 20260502011108 | 4 | 4 | 0.0 | 0.0 | 0.18 | 0.05 | 0.05 | 96 | 1016.3 |
| 20260502010606 | 4 | 355 | 0.0 | 0.0 | 0.30 | 0.05 | 0.05 | 95 | 1016.2 |
| 20260502005600 | 4 | 12 | 0.0 | 0.0 | 0.00 | 0.00 | 0.00 | 94 | 1016.3 |
| 20260502005058 | 5 | 60 | 0.0 | 0.0 | 0.00 | 0.00 | 0.00 | 93 | 1016.2 |
| 20260502004559 | 5 | 78 | 0.0 | 0.0 | 0.00 | 0.00 | 0.00 | 93 | 1015.9 |
| 20260502004056 | 5 | 19 | 0.0 | 0.0 | 0.00 | 0.00 | 0.00 | 92 | 1015.4 |
| 20260502003554 | 5 | 82 | 1.6 | 1.6 | 0.00 | 0.00 | 0.00 | 91 | 1015.3 |
| 20260502003050 | 5 | 147 | 0.0 | 1.6 | 0.00 | 0.00 | 0.00 | 91 | 1015.1 |
| 20260502002547 | 6 | 325 | 1.6 | 1.6 | 0.00 | 0.00 | 0.00 | 89 | 1014.8 |
| 20260502002044 | 6 | 80 | 0.0 | 1.6 | 0.00 | 0.00 | 0.00 | 84 | 1015.1 |
| 20260502001542 | 6 | 59 | 0.0 | 0.0 | 0.00 | 0.00 | 0.00 | 85 | 1014.6 |
| 20260502001039 | 6 | 16 | 0.0 | 0.0 | 0.00 | 0.00 | 0.00 | 85 | 1014.6 |
| 20260502000537 | 6 | 0 | 0.0 | 1.6 | 0.00 | 0.00 | 0.00 | 85 | 1014.8 |
| 20260502000034 | 6 | 52 | 0.0 | 3.2 | 0.00 | 0.00 | 0.00 | 85 | 1014.7 |
| 20260501235529 | 6 | 357 | 0.0 | 1.6 | 0.00 | 0.00 | 0.00 | 84 | 1014.8 |
| 20260501235025 | 6 | 0 | 0.0 | 0.0 | 0.00 | 0.00 | 0.00 | 84 | 1014.7 |
| 20260501234521 | 7 | 334 | 0.0 | 0.0 | 0.00 | 0.00 | 0.00 | 83 | 1014.8 |
| 20260501234020 | 7 | 316 | 0.0 | 0.0 | 0.00 | 0.00 | 0.00 | 83 | 1014.5 |
| 20260501233517 | 7 | 330 | 1.6 | 1.6 | 0.00 | 0.00 | 0.00 | 83 | 1014.5 |
| 20260501233014 | 7 | 34 | 0.0 | 1.6 | 0.00 | 0.00 | 0.00 | 81 | 1014.5 |
| 20260501232510 | 7 | 24 | 0.0 | 0.0 | 0.00 | 0.00 | 0.00 | 80 | 1014.6 |
| 20260501232008 | 7 | 357 | 0.0 | 1.6 | 0.00 | 0.00 | 0.00 | 77 | 1014.3 |
| 20260501231505 | 8 | 106 | 0.0 | 1.6 | 0.00 | 0.00 | 0.00 | 74 | 1014.5 |
| 20260501231003 | 8 | 17 | 1.6 | 1.6 | 0.00 | 0.00 | 0.00 | 73 | 1014.5 |
| 20260501230502 | 8 | 63 | 0.0 | 0.0 | 0.00 | 0.00 | 0.00 | 71 | 1014.3 |
| 20260501225959 | 8 | 107 | 0.0 | 1.6 | 0.00 | 0.00 | 0.00 | 72 | 1014.4 |
| 20260501225457 | 8 | 20 | 1.6 | 3.2 | 0.00 | 0.00 | 0.00 | 68 | 1013.7 |
| 20260501224952 | 8 | 353 | 0.0 | 1.6 | 0.00 | 0.00 | 0.00 | 67 | 1014.0 |
| 20260501224450 | 9 | 80 | 1.6 | 3.2 | 0.00 | 0.00 | 0.00 | 64 | 1014.1 |
| 20260501223947 | 9 | 338 | 0.0 | 1.6 | 0.00 | 0.00 | 0.00 | 62 | 1014.3 |
| 20260501223443 | 10 | 106 | 0.0 | 4.8 | 0.00 | 0.00 | 0.00 | 59 | 1014.0 |
| 20260501222938 | 10 | 61 | 0.0 | 0.0 | 0.00 | 0.00 | 0.00 | 58 | 1013.7 |
| 20260501222436 | 10 | 348 | 1.6 | 3.2 | 0.00 | 0.00 | 0.00 | 52 | 1013.9 |
| 20260501221932 | 10 | 90 | 0.0 | 0.0 | 0.00 | 0.00 | 0.00 | 53 | 1013.5 |
| 20260501221430 | 10 | 59 | 0.0 | 1.6 | 0.00 | 0.00 | 0.00 | 51 | 1013.5 |
| 20260501220927 | 11 | 31 | 0.0 | 1.6 | 0.00 | 0.00 | 0.00 | 52 | 1013.5 |
| 20260501220425 | 11 | 84 | 0.0 | 1.6 | 0.00 | 0.00 | 0.00 | 53 | 1013.5 |
| 20260501215921 | 11 | 19 | 0.0 | 1.6 | 0.00 | 0.00 | 0.00 | 47 | 1013.7 |
| 20260501215418 | 11 | 334 | 3.2 | 4.8 | 0.00 | 0.00 | 0.00 | 45 | 1013.2 |
| 20260501214913 | 12 | 39 | 0.0 | 1.6 | 0.00 | 0.00 | 0.00 | 46 | 1013.4 |
| 20260501214408 | 12 | 36 | 0.0 | 0.0 | 0.00 | 0.00 | 0.00 | 47 | 1013.3 |
| 20260501213904 | 12 | 67 | 0.0 | 0.0 | 0.00 | 0.00 | 0.00 | 43 | 1013.2 |
| 20260501213401 | 12 | 15 | 3.2 | 3.2 | 0.00 | 0.00 | 0.00 | 43 | 1013.0 |
| 20260501212857 | 11 | 125 | 0.0 | 1.6 | 0.00 | 0.00 | 0.00 | 49 | 1013.1 |
| 20260501212354 | 11 | 46 | 1.6 | 1.6 | 0.00 | 0.00 | 0.00 | 48 | 1013.0 |
| 20260501211851 | 12 | 19 | 0.0 | 1.6 | 0.00 | 0.00 | 0.00 | 45 | 1013.1 |
| 20260501211348 | 12 | 72 | 0.0 | 1.6 | 0.00 | 0.00 | 0.00 | 45 | 1012.9 |